Simultaneous Nadir Overpasses (SNOs) Predictions

Prediction of SNOs between AQUA and NOAA-19 Satellite Orbit:

Table of predicted SNOs for the next 14.0 days since TLE Epoch: 7/31/2012
Index Date (AQUA) Time (AQUA) AQUA Lat,Lon Date (NOAA-19) Time (NOAA-19) NOAA-19 Lat,Lon Distance(km) Time Diff (sec)
1 07/31/2012 13:12:10 46.02,-165.66 07/31/2012 13:11:44 46.01,-165.45 15.66 26
2 07/31/2012 14:00:10 -51.32, 4.12 07/31/2012 14:01:12 -51.32, 4.11 0.77 62
3 08/02/2012 17:56:25 46.04, 123.28 08/02/2012 17:56:23 46.01, 123.39 8.62 2
4 08/02/2012 18:37:52 -73.65, -46.39 08/02/2012 18:39:06 -73.41, -45.17 47.32 74
5 08/04/2012 22:40:19 47.28, 52.69 08/04/2012 22:40:40 47.26, 52.74 4.69 21
6 08/07/2012 02:35:32 -46.00, 173.48 08/07/2012 02:34:37 -45.91, 173.80 26.69 55
7 08/07/2012 03:24:02 49.16, -17.63 08/07/2012 03:24:45 49.17, -17.60 2.14 43
8 08/09/2012 07:19:46 -46.03, 102.43 08/09/2012 07:19:14 -45.97, 102.67 19.91 32
9 08/09/2012 08:07:33 51.74, -87.59 08/09/2012 08:08:38 51.74, -87.57 1.75 65
10 08/11/2012 12:04:00 -46.05, 31.37 08/11/2012 12:03:51 -46.01, 31.54 13.15 9
11 08/11/2012 12:44:01 77.67,-126.23 08/11/2012 12:45:14 77.32,-124.47 57.65 73
12 08/13/2012 16:48:00 -46.88, -39.38 08/13/2012 16:48:14 -46.84, -39.28 8.27 14




NCC Satellite Simultaneous Nadir Overpasses (SNOs) Prediction Service
